ASTRA 2G

Last updated on Nov. 14, 2019, 4:21 a.m. UTC

1 40364U 14089A   19317.82827020  .00000164  00000-0  00000+0 0  9999
2 40364   0.0328  17.2444 0000712  49.8574 311.9767  1.00272797 17884
UTC
Height (km)
Latitude
Longitude
Inclination
Orbital Period
UTC large
Height (km)
Speed (km/s)
/
Latitude / Longitude
Inclination (degrees)
Orbital Period (minutes)
Azimuth
Elevation
Range (km)
Doppler Factor
iOS Compass Heading
iOS Angle

Next 30 passes for location: Hong Kong

Rise time Rise Azimuth (degrees) Set time Set Azimuth (degrees) Duration Max altitude (degrees)

No matching passes for this satellites